CW2265 Weather Reports


Display with metric or nautical units.
time (UTC)temp
F
wind
direction
speed
MPH
gust
MPH
rain 1hr
in
rain 24hr
in
rain mn
in
humidity
%
barometer
mb
20191209050505 49 166 6.0 13.0 0.00 0.00 0.00 74 1012.5
20191209050024 49 184 5.0 13.0 0.00 0.00 0.00 74 1012.5
20191209045505 49 188 6.0 10.0 0.00 0.00 0.00 75 1012.5
20191209045019 49 184 6.0 12.0 0.00 0.00 0.00 75 1012.3
20191209044505 49 180 6.0 13.0 0.00 0.00 0.00 75 1012.3
20191209044023 49 187 6.0 14.0 0.00 0.00 0.00 75 1012.3
20191209043504 49 175 6.0 17.0 0.00 0.00 0.00 74 1012.3
20191209043020 49 177 7.0 13.0 0.00 0.00 0.00 74 1012.3
20191209042504 49 200 6.0 10.0 0.00 0.00 0.00 74 1012.3
20191209040505 50 197 6.0 13.0 0.00 0.00 0.00 73 1012.6
20191209040021 50 204 6.0 16.0 0.00 0.00 0.00 73 1012.6
20191209035505 50 196 6.0 12.0 0.00 0.00 0.00 73 1012.6
20191209035021 50 176 7.0 13.0 0.00 0.00 0.00 73 1012.6
20191209034506 49 202 6.0 14.0 0.00 0.00 0.00 73 1012.6
20191209032505 49 186 9.0 15.0 0.00 0.00 0.00 74 1012.6
20191209032021 49 199 8.0 20.0 0.00 0.00 0.00 74 1012.5
20191209031505 49 195 5.0 12.0 0.00 0.00 0.00 74 1012.3
20191209031022 49 204 6.0 14.0 0.00 0.00 0.00 74 1012.3
20191209030505 49 193 5.0 13.0 0.00 0.00 0.00 74 1012.3
20191209030024 49 191 5.0 17.0 0.00 0.00 0.00 74 1012.3
20191209025505 49 199 7.0 14.0 0.00 0.00 0.00 73 1012.1
20191209025016 49 196 6.0 15.0 0.00 0.00 0.00 73 1012.1
20191209024505 49 195 7.0 16.0 0.00 0.00 0.00 73 1012.1
20191209024018 49 175 6.0 15.0 0.00 0.00 0.00 73 1012.3
20191209023505 49 191 9.0 18.0 0.00 0.00 0.00 73 1012.3
20191209023022 49 192 7.0 17.0 0.00 0.00 0.00 73 1012.2
20191209022504 49 194 8.0 18.0 0.00 0.00 0.00 73 1012.3
20191209022020 49 197 9.0 18.0 0.00 0.00 0.00 73 1012.3
20191209021505 49 195 9.0 16.0 0.00 0.00 0.00 73 1012.3
20191209021020 49 201 9.0 20.0 0.00 0.00 0.00 73 1012.3
20191209020504 49 187 7.0 20.0 0.00 0.00 0.00 73 1012.3
20191209020017 49 191 8.0 15.0 0.00 0.00 0.00 73 1012.3
20191209015505 49 190 9.0 22.0 0.00 0.00 0.00 73 1012.3
20191209015020 49 196 7.0 16.0 0.00 0.00 0.00 73 1012.1
20191209014021 49 192 9.0 22.0 0.00 0.00 0.00 73 1012.1
20191209013505 49 208 9.0 16.0 0.00 0.00 0.00 73 1012.2
20191209013022 49 198 9.0 22.0 0.00 0.00 0.00 73 1012.2
20191209012504 49 199 10.0 23.0 0.00 0.00 0.00 73 1012.2
20191209012020 49 198 9.0 15.0 0.00 0.00 0.00 73 1012.3
20191209011505 49 186 8.0 23.0 0.00 0.00 0.00 73 1012.3
20191209011021 49 184 10.0 23.0 0.00 0.00 0.00 73 1012.2
20191209010504 49 197 9.0 17.0 0.00 0.00 0.00 72 1012.1
20191209010018 49 209 11.0 18.0 0.00 0.00 0.00 72 1012.1
20191209005507 49 196 9.0 22.0 0.00 0.00 0.00 72 1012.1
20191209005025 49 181 8.0 20.0 0.00 0.00 0.00 72 1012.1
20191209004505 49 201 7.0 22.0 0.00 0.00 0.00 72 1012.1
20191209004023 49 196 10.0 18.0 0.00 0.00 0.00 72 1012.1
20191209003506 49 204 10.0 18.0 0.00 0.00 0.00 72 1011.8
20191209003020 49 185 9.0 21.0 0.00 0.00 0.00 72 1011.8
20191209002505 49 194 12.0 24.0 0.00 0.00 0.00 73 1011.8
20191209002022 48 199 10.0 20.0 0.00 0.00 0.00 73 1011.8
20191209001505 48 190 9.0 18.0 0.00 0.00 0.00 74 1011.9
20191209001021 48 192 9.0 21.0 0.00 0.00 0.00 74 1011.8
20191209000504 48 192 9.0 18.0 0.00 0.00 0.00 74 1011.8
20191209000020 48 190 9.0 22.0 0.00 0.00 0.00 74 1011.8
20191208235504 48 196 10.0 21.0 0.00 0.00 0.00 74 1011.8
20191208235021 48 198 8.0 17.0 0.00 0.00 0.00 75 1012.0
20191208234505 48 190 7.0 15.0 0.00 0.00 0.00 74 1012.1
20191208231023 47 174 3.0 12.0 0.00 0.00 0.00 75 1012.1
20191208230022 47 198 8.0 17.0 0.00 0.00 0.00 75 1012.1
20191208225505 46 177 5.0 14.0 0.00 0.00 0.00 75 1012.1
20191208225019 46 187 8.0 15.0 0.00 0.00 0.00 75 1012.1
20191208224505 47 176 7.0 16.0 0.00 0.00 0.00 75 1012.5
20191208224022 46 186 6.0 20.0 0.00 0.00 0.00 75 1012.5
20191208223506 46 177 9.0 16.0 0.00 0.00 0.00 75 1012.5
20191208223027 46 177 5.0 12.0 0.00 0.00 0.00 74 1012.5
20191208222506 46 179 6.0 14.0 0.00 0.00 0.00 74 1012.6
20191208222020 46 196 7.0 16.0 0.00 0.00 0.00 74 1012.6
20191208221505 46 180 8.0 17.0 0.00 0.00 0.00 73 1012.6
20191208221021 46 190 7.0 14.0 0.00 0.00 0.00 73 1012.7
20191208220505 46 181 6.0 15.0 0.00 0.00 0.00 74 1012.7
20191208220015 46 173 5.0 12.0 0.00 0.00 0.00 74 1012.7
20191208215505 46 162 7.0 18.0 0.00 0.00 0.00 74 1012.7
20191208215020 46 194 9.0 22.0 0.00 0.00 0.00 74 1012.7
20191208214505 46 180 7.0 22.0 0.00 0.00 0.00 74 1012.7
20191208214022 46 185 9.0 22.0 0.00 0.00 0.00 74 1012.9
20191208213505 46 160 9.0 18.0 0.00 0.00 0.00 74 1012.9
20191208213022 46 196 7.0 15.0 0.00 0.00 0.00 74 1012.9
20191208212505 46 183 7.0 14.0 0.00 0.00 0.00 75 1012.9
20191208212028 46 177 10.0 18.0 0.00 0.00 0.00 75 1012.9
20191208211506 46 184 6.0 12.0 0.00 0.00 0.00 75 1013.7
20191208211022 46 174 6.0 15.0 0.00 0.00 0.00 74 1013.7
20191208200505 45 183 7.0 17.0 0.00 0.00 0.00 71 1013.6
20191208200021 45 186 8.0 12.0 0.00 0.00 0.00 71 1013.7
20191208195504 45 200 10.0 20.0 0.00 0.00 0.00 70 1013.7
20191208195021 45 208 10.0 22.0 0.00 0.00 0.00 70 1013.8
20191208194504 46 200 10.0 20.0 0.00 0.00 0.00 70 1013.8
20191208194018 46 203 9.0 18.0 0.00 0.00 0.00 69 1014.2
20191208193505 46 221 13.0 22.0 0.00 0.00 0.00 69 1014.2
20191208193015 46 211 13.0 22.0 0.00 0.00 0.00 68 1014.2
20191208192504 46 210 9.0 18.0 0.00 0.00 0.00 68 1014.2
20191208192020 46 203 9.0 30.0 0.00 0.00 0.00 68 1014.1
20191208191505 46 196 12.0 22.0 0.00 0.00 0.00 66 1014.1
20191208191019 46 202 9.0 21.0 0.00 0.00 0.00 66 1014.2
20191208190504 46 205 10.0 22.0 0.00 0.00 0.00 65 1014.2
20191208190019 46 189 9.0 17.0 0.00 0.00 0.00 65 1014.2
20191208185505 46 204 7.0 18.0 0.00 0.00 0.00 65 1014.2
20191208185021 46 188 11.0 24.0 0.00 0.00 0.00 64 1014.2
20191208184505 46 190 12.0 23.0 0.00 0.00 0.00 64 1014.2
20191208184022 46 190 7.0 17.0 0.00 0.00 0.00 64 1014.2
20191208183505 45 187 7.0 15.0 0.00 0.00 0.00 64 1014.2
20191208183020 45 191 9.0 21.0 0.00 0.00 0.00 64 1014.2
20191208182504 45 190 7.0 20.0 0.00 0.00 0.00 63 1014.2
20191208182020 45 180 10.0 20.0 0.00 0.00 0.00 62 1014.3
20191208181505 45 193 7.0 23.0 0.00 0.00 0.00 62 1014.3
20191208181021 45 185 9.0 23.0 0.00 0.00 0.00 61 1014.7
20191208180504 45 160 5.0 12.0 0.00 0.00 0.00 62 1014.7
20191208180017 45 177 10.0 21.0 0.00 0.00 0.00 61 1014.7
20191208175505 45 203 8.0 18.0 0.00 0.00 0.00 61 1014.7
20191208175019 45 194 9.0 18.0 0.00 0.00 0.00 60 1014.8
20191208174505 45 190 7.0 20.0 0.00 0.00 0.00 59 1014.8
20191208172020 46 173 7.0 14.0 0.00 0.00 0.00 56 1015.8
20191208171506 45 178 7.0 20.0 0.00 0.00 0.00 56 1015.8
20191208171016 45 192 9.0 20.0 0.00 0.00 0.00 55 1015.8
20191208170505 45 169 10.0 20.0 0.00 0.00 0.00 56 1016.3
20191208170021 44 197 7.0 16.0 0.00 0.00 0.00 56 1016.3
20191208165505 44 176 7.0 17.0 0.00 0.00 0.00 56 1016.3
20191208165019 44 186 9.0 18.0 0.00 0.00 0.00 56 1016.9
20191208164504 43 181 8.0 13.0 0.00 0.00 0.00 56 1016.9
20191208164021 43 147 4.0 12.0 0.00 0.00 0.00 57 1016.9
20191208163504 43 174 6.0 15.0 0.00 0.00 0.00 55 1016.9
20191208163021 43 176 6.0 12.0 0.00 0.00 0.00 55 1016.9
20191208162505 43 162 5.0 15.0 0.00 0.00 0.00 55 1017.0
20191208162022 43 170 9.0 17.0 0.00 0.00 0.00 53 1017.2
20191208161505 43 175 9.0 20.0 0.00 0.00 0.00 53 1018.5
20191208161021 43 177 6.0 14.0 0.00 0.00 0.00 54 1018.5
20191208160505 42 172 7.0 18.0 0.00 0.00 0.00 55 1018.5
20191208160024 42 188 6.0 14.0 0.00 0.00 0.00 57 1018.5
20191208154026 42 182 7.0 21.0 0.00 0.00 0.00 58 1018.5
20191208153024 42 173 8.0 20.0 0.00 0.00 0.00 56 1018.5
20191208152504 42 178 5.0 18.0 0.00 0.00 0.00 56 1018.5
20191208152025 42 178 7.0 18.0 0.00 0.00 0.00 55 1018.5
20191208151505 42 169 6.0 10.0 0.00 0.00 0.00 56 1018.6
20191208151025 42 175 4.0 18.0 0.00 0.00 0.00 56 1018.6
20191208150504 41 185 6.0 12.0 0.00 0.00 0.00 57 1018.7
20191208150025 41 182 3.0 10.0 0.00 0.00 0.00 57 1018.7
20191208145505 41 172 7.0 14.0 0.00 0.00 0.00 56 1018.9
20191208145023 41 178 5.0 14.0 0.00 0.00 0.00 57 1018.9
20191208144505 40 179 7.0 16.0 0.00 0.00 0.00 57 1018.9
20191208144025 40 179 5.0 14.0 0.00 0.00 0.00 56 1018.9
20191208143505 40 180 7.0 15.0 0.00 0.00 0.00 56 1018.9
20191208143027 40 189 6.0 15.0 0.00 0.00 0.00 56 1018.9
20191208142505 39 189 5.0 12.0 0.00 0.00 0.00 57 1019.0
20191208142022 39 189 4.0 10.0 0.00 0.00 0.00 59 1019.0
20191208141505 39 189 5.0 13.0 0.00 0.00 0.00 59 1019.0
20191208141022 39 174 6.0 13.0 0.00 0.00 0.00 60 1019.0
20191208140504 38 184 6.0 13.0 0.00 0.00 0.00 62 1019.0
20191208140023 38 177 6.0 12.0 0.00 0.00 0.00 62 1019.0
20191208135505 38 179 6.0 14.0 0.00 0.00 0.00 63 1019.0
20191208135018 38 174 5.0 12.0 0.00 0.00 0.00 65 1019.0
20191208134505 38 167 6.0 12.0 0.00 0.00 0.00 66 1019.2
20191208134023 37 184 5.0 13.0 0.00 0.00 0.00 66 1019.2
20191208133505 37 181 5.0 12.0 0.00 0.00 0.00 66 1019.2
20191208133023 37 184 7.0 16.0 0.00 0.00 0.00 65 1019.2
20191208132505 37 177 6.0 13.0 0.00 0.00 0.00 64 1019.2
20191208132024 37 184 6.0 13.0 0.00 0.00 0.00 63 1019.2
20191208131504 37 175 8.0 16.0 0.00 0.00 0.00 62 1019.3
20191208131023 37 179 6.0 13.0 0.00 0.00 0.00 61 1019.3
20191208120504 37 179 2.0 5.0 0.00 0.00 0.00 65 1021.2
20191208120031 37 180 1.0 3.0 0.00 0.00 0.00 65 1021.2
20191208115504 37 180 2.0 6.0 0.00 0.00 0.00 65 1021.2
20191208115020 37 180 1.0 10.0 0.00 0.00 0.00 66 1021.2
20191208114508 37 161 4.0 9.0 0.00 0.00 0.00 67 1021.6
20191208114022 37 173 5.0 12.0 0.00 0.00 0.00 67 1021.6
20191208113505 37 169 4.0 12.0 0.00 0.00 0.00 68 1021.6
20191208113022 36 184 5.0 12.0 0.00 0.00 0.00 70 1021.6
20191208112505 36 154 9.0 17.0 0.00 0.00 0.00 70 1021.9
20191208112023 36 187 3.0 12.0 0.00 0.00 0.00 71 1021.9
20191208111505 36 168 5.0 9.0 0.00 0.00 0.00 71 1021.9
20191208111022 36 179 5.0 12.0 0.00 0.00 0.00 72 1021.9
20191208110504 36 182 4.0 12.0 0.00 0.00 0.00 72 1022.6
20191208110025 36 178 7.0 14.0 0.00 0.00 0.00 73 1022.6
20191208105505 36 177 5.0 9.0 0.00 0.00 0.00 74 1022.6
20191208105014 36 176 6.0 14.0 0.00 0.00 0.00 74 1022.6
20191208104505 36 162 6.0 12.0 0.00 0.00 0.00 74 1022.6
20191208104025 36 164 4.0 12.0 0.00 0.00 0.00 75 1022.6
20191208103504 35 180 6.0 12.0 0.00 0.00 0.00 75 1022.6
20191208103024 35 172 3.0 8.0 0.00 0.00 0.00 76 1022.6
20191208102504 35 188 1.0 9.0 0.00 0.00 0.00 76 1022.6
20191208102023 35 165 4.0 9.0 0.00 0.00 0.00 77 1022.6
20191208101504 35 164 3.0 10.0 0.00 0.00 0.00 77 1022.6
20191208101028 34 150 4.0 8.0 0.00 0.00 0.00 78 1022.6
20191208100504 34 148 3.0 7.0 0.00 0.00 0.00 78 1022.7
20191208100025 34 171 5.0 8.0 0.00 0.00 0.00 78 1022.7
20191208095505 34 161 5.0 10.0 0.00 0.00 0.00 79 1022.8
20191208095024 34 168 5.0 8.0 0.00 0.00 0.00 79 1022.8
20191208094505 33 164 4.0 7.0 0.00 0.00 0.00 80 1023.1
20191208094025 33 165 3.0 10.0 0.00 0.00 0.00 80 1023.1
20191208093505 33 186 5.0 12.0 0.00 0.00 0.00 80 1023.9
20191208093021 33 173 5.0 10.0 0.00 0.00 0.00 81 1023.9
20191208092504 32 169 3.0 8.0 0.00 0.00 0.00 82 1023.9
20191208092025 32 156 4.0 8.0 0.00 0.00 0.00 84 1023.9
20191208075505 28 205 0.0 2.0 0.00 0.00 0.00 85 1024.6
20191208075022 28 205 0.0 1.0 0.00 0.00 0.00 84 1024.6
20191208074504 28 205 0.0 0.0 0.00 0.00 0.00 84 1024.7
20191208074023 28 205 0.0 0.0 0.00 0.00 0.00 84 1024.7
20191208073505 28 205 0.0 1.0 0.00 0.00 0.00 83 1024.9
20191208064022 29 205 0.0 1.0 0.00 0.00 0.00 83 1024.9
20191208063505 29 205 0.0 1.0 0.00 0.00 0.00 83 1025.4
20191208063018 29 205 0.0 1.0 0.00 0.00 0.00 82 1025.4
20191208062505 29 205 0.0 1.0 0.00 0.00 0.00 82 1025.4
20191208061505 29 205 0.0 1.0 0.00 0.00 0.00 83 1025.4
20191208061015 29 205 0.0 1.0 0.00 0.00 0.00 83 1025.4
20191208060505 28 205 0.0 0.0 0.00 0.00 0.00 83 1025.4
20191208060015 28 205 0.0 1.0 0.00 0.00 0.00 83 1025.4
20191208055505 28 205 0.0 1.0 0.00 0.00 0.00 83 1025.7
20191208055022 28 205 0.0 1.0 0.00 0.00 0.00 83 1025.7
20191208054505 28 205 0.0 1.0 0.00 0.00 0.00 83 1025.7
20191208054022 27 205 0.0 2.0 0.00 0.00 0.00 84 1025.7
20191208053505 27 205 0.0 3.0 0.00 0.00 0.00 83 1026.1
20191208053024 27 205 1.0 3.0 0.00 0.00 0.00 83 1026.1
20191208052505 27 205 1.0 3.0 0.00 0.00 0.00 83 1026.1
20191208052023 27 205 0.0 1.0 0.00 0.00 0.00 83 1026.1